Home   Weather   Shizuoka   Past weeks
Flag for Japan

Past Weather in Shizuoka, Japan — Yesterday and Last 2 Weeks

Now
68 °F

Mild.


Feels Like: 68 °F
Forecast: 69 / 61 °F
Wind: 9 mph from East

Location: Omaezaki

Current Time: May 20, 2019 at 8:13:06 am

Latest Report: May 20, 2019 at 7:00 am


Visibility: 13 mi

Pressure: 30.04 "Hg

Humidity: 75%

Dew Point: 60 °F

Location of ShizuokaLocation

Past Weather in Shizuoka — Graph

°F

Shizuoka Temperature Yesterday

Maximum temperature yesterday: 74 °F (at 1:00 pm)
Minimum temperature yesterday: 66 °F (at 5:00 am)
Average temperature yesterday: 69 °F

High & Low Weather Summary for the Past Weeks

 TemperatureHumidityPressure
High75 °F (May 17, 1:00 pm)97% (May 6, 4:00 am)30.21 "Hg (May 6, 4:00 am)
Low55 °F (May 8, 5:00 am)22% (May 7, 5:00 pm)29.72 "Hg (May 7, 3:00 pm)
Average66 °F74%30.00 "Hg
* Reported May 5 6:00 am — May 20 6:00 am, Shizuoka. Weather by CustomWeather, © 2019

Note: Actual official high and low records may vary slightly from our data, if they occured in-between our weather recording intervals... More about our weather records

Advertising

Shizuoka Weather History for the Previous 24 Hours

Scroll right to see more
 ConditionsComfort  
Time TempWeatherWind HumidityBarometerVisibility
6:00 am
Mon, May 20
66 °FMild.9 mph79%30.06 "Hg12 mi
5:00 am67 °FMild.9 mph77%30.06 "Hg12 mi
4:00 am67 °FMild.8 mph73%30.06 "Hg12 mi
3:00 am67 °FMild.10 mph73%30.08 "Hg12 mi
2:00 am67 °FMild.10 mph71%30.08 "Hg12 mi
1:00 am67 °FMild.9 mph72%30.10 "Hg12 mi
12:00 am67 °FMild.10 mph72%30.11 "Hg12 mi
11:00 pm
Sun, May 19
67 °FMild.10 mph71%30.14 "Hg12 mi
10:00 pm67 °FMild.10 mph70%30.14 "Hg12 mi
9:00 pm68 °FMild.13 mph71%30.15 "Hg12 mi
8:00 pm68 °FMild.12 mph70%30.14 "Hg12 mi
7:00 pm68 °FMild.9 mph68%30.14 "Hg12 mi
6:00 pm69 °FMild.10 mph66%30.13 "Hg12 mi
5:00 pm71 °FMild.12 mph61%30.13 "Hg12 mi
4:00 pm72 °FMild.13 mph59%30.14 "Hg12 mi
3:00 pm72 °FMild.17 mph59%30.14 "Hg12 mi
2:00 pm73 °FMild.17 mph55%30.15 "Hg12 mi
1:00 pm74 °FMild.13 mph57%30.16 "Hg12 mi
12:00 pm73 °FMild.13 mph54%30.18 "Hg12 mi
11:00 am72 °FMild.12 mph60%30.19 "Hg12 mi
10:00 am72 °FMild.12 mph71%30.19 "Hg12 mi
9:00 am72 °FMild.9 mph64%30.19 "Hg12 mi
8:00 am69 °FMild.9 mph69%30.19 "Hg12 mi
Weather by CustomWeather, © 2019

See weather overview